TimeMST,TemperatureF,Dew PointF,Humidity,Sea Level PressureIn,VisibilityMPH,Wind Direction,Wind SpeedMPH,Gust SpeedMPH,PrecipitationIn,Events,Conditions,WindDirDegrees,DateUTC
12:56 AM,19.0,12.9,77,29.94,-9999.0,West,9.2,-,N/A,,Unknown,270,2012-12-03 07:56:00
1:56 AM,15.1,12.0,88,29.98,-9999.0,Calm,Calm,-,N/A,,Unknown,0,2012-12-03 08:56:00
2:56 AM,12.9,10.0,88,30.08,-9999.0,Variable,3.5,-,N/A,,Unknown,0,2012-12-03 09:56:00
3:56 AM,12.9,9.0,84,30.11,-9999.0,NW,3.5,-,N/A,,Unknown,320,2012-12-03 10:56:00
4:56 AM,16.0,12.0,84,30.08,-9999.0,Calm,Calm,-,N/A,,Unknown,0,2012-12-03 11:56:00
5:56 AM,19.9,15.1,81,30.06,-9999.0,Variable,4.6,-,N/A,,Unknown,0,2012-12-03 12:56:00
6:56 AM,21.0,16.0,81,30.09,-9999.0,Variable,6.9,-,N/A,,Unknown,0,2012-12-03 13:56:00
7:56 AM,21.0,16.0,81,30.12,-9999.0,Calm,Calm,-,N/A,,Unknown,0,2012-12-03 14:56:00
8:56 AM,21.0,17.1,85,30.17,-9999.0,West,8.1,-,N/A,,Unknown,270,2012-12-03 15:56:00
9:56 AM,21.0,17.1,85,30.17,-9999.0,Variable,5.8,-,N/A,,Unknown,0,2012-12-03 16:56:00
10:56 AM,21.9,17.1,82,30.20,-9999.0,Variable,5.8,-,N/A,,Unknown,0,2012-12-03 17:56:00
11:56 AM,21.9,18.0,85,30.24,-9999.0,Variable,4.6,-,N/A,,Unknown,0,2012-12-03 18:56:00
12:56 PM,23.0,18.0,81,30.25,-9999.0,Variable,4.6,-,N/A,,Unknown,0,2012-12-03 19:56:00
1:56 PM,21.9,16.0,78,30.27,-9999.0,West,9.2,17.3,N/A,,Unknown,270,2012-12-03 20:56:00
2:56 PM,21.9,17.1,82,30.28,-9999.0,West,8.1,-,N/A,,Unknown,270,2012-12-03 21:56:00
3:56 PM,21.9,16.0,78,30.31,-9999.0,Variable,6.9,18.4,N/A,,Unknown,0,2012-12-03 22:56:00
4:56 PM,21.9,17.1,82,30.33,-9999.0,Variable,4.6,-,N/A,,Unknown,0,2012-12-03 23:56:00
5:56 PM,21.9,17.1,82,30.31,-9999.0,Variable,3.5,-,N/A,,Unknown,0,2012-12-04 00:56:00
6:56 PM,23.0,17.1,78,30.32,-9999.0,Calm,Calm,-,N/A,,Unknown,0,2012-12-04 01:56:00
7:56 PM,23.0,18.0,81,30.33,-9999.0,Calm,Calm,-,N/A,,Unknown,0,2012-12-04 02:56:00
8:56 PM,21.9,18.0,85,30.34,-9999.0,Variable,3.5,-,N/A,,Unknown,0,2012-12-04 03:56:00
9:56 PM,21.9,17.1,82,30.34,-9999.0,Calm,Calm,-,N/A,,Unknown,0,2012-12-04 04:56:00
10:56 PM,21.9,17.1,82,30.35,-9999.0,Calm,Calm,-,N/A,,Unknown,0,2012-12-04 05:56:00
11:56 PM,21.9,18.0,85,30.37,-9999.0,Calm,Calm,-,N/A,,Unknown,0,2012-12-04 06:56:00